TimeEDT,TemperatureF,Dew PointF,Humidity,Sea Level PressureIn,VisibilityMPH,Wind Direction,Wind SpeedMPH,Gust SpeedMPH,PrecipitationIn,Events,Conditions,WindDirDegrees,DateUTC
12:53 AM,48.9,44.1,83,29.85,10.0,NNW,9.2,-,N/A,,Overcast,340,2013-05-11 04:53:00
1:17 AM,48.2,42.8,82,29.86,10.0,NNW,10.4,-,N/A,,Overcast,330,2013-05-11 05:17:00
1:53 AM,46.9,43.0,86,29.86,10.0,NNW,6.9,-,N/A,,Overcast,330,2013-05-11 05:53:00
2:53 AM,46.0,43.0,89,29.86,9.0,NNW,6.9,-,N/A,,Overcast,340,2013-05-11 06:53:00
3:53 AM,46.0,43.0,89,29.85,9.0,NW,8.1,-,N/A,,Overcast,320,2013-05-11 07:53:00
4:34 AM,46.4,42.8,87,29.87,10.0,NNW,5.8,-,N/A,,Overcast,330,2013-05-11 08:34:00
4:53 AM,46.0,42.1,86,29.87,10.0,NNW,5.8,-,N/A,,Overcast,330,2013-05-11 08:53:00
5:53 AM,46.0,43.0,89,29.87,9.0,NW,6.9,-,N/A,,Overcast,310,2013-05-11 09:53:00
6:48 AM,46.4,42.8,87,29.88,9.0,NW,8.1,-,N/A,,Overcast,310,2013-05-11 10:48:00
6:53 AM,46.0,42.1,86,29.87,9.0,WNW,6.9,-,N/A,,Overcast,300,2013-05-11 10:53:00
7:02 AM,46.4,42.8,87,29.88,9.0,WNW,6.9,-,N/A,,Overcast,300,2013-05-11 11:02:00
7:14 AM,46.4,42.8,87,29.88,10.0,WNW,6.9,-,N/A,,Overcast,300,2013-05-11 11:14:00
7:53 AM,46.9,42.1,83,29.87,10.0,NW,6.9,-,N/A,,Overcast,310,2013-05-11 11:53:00
8:53 AM,48.0,42.1,80,29.86,10.0,West,6.9,-,N/A,,Overcast,280,2013-05-11 12:53:00
9:07 AM,48.2,42.8,82,29.88,10.0,WNW,6.9,-,N/A,,Overcast,300,2013-05-11 13:07:00
9:53 AM,48.9,43.0,80,29.86,10.0,West,8.1,-,N/A,,Overcast,270,2013-05-11 13:53:00
10:53 AM,50.0,44.1,80,29.87,10.0,West,6.9,-,N/A,,Overcast,280,2013-05-11 14:53:00
11:53 AM,50.0,45.0,83,29.88,10.0,WSW,10.4,-,N/A,,Overcast,250,2013-05-11 15:53:00
12:53 PM,50.0,45.0,83,29.86,10.0,West,10.4,-,N/A,,Overcast,260,2013-05-11 16:53:00
1:53 PM,51.1,46.0,83,29.86,10.0,West,12.7,-,N/A,,Overcast,260,2013-05-11 17:53:00
2:45 PM,51.8,46.4,82,29.85,10.0,SW,10.4,-,N/A,,Overcast,230,2013-05-11 18:45:00
2:53 PM,53.1,46.0,77,29.84,10.0,WSW,10.4,-,N/A,,Overcast,240,2013-05-11 18:53:00
3:02 PM,53.6,46.4,77,29.85,10.0,WSW,12.7,-,N/A,,Overcast,240,2013-05-11 19:02:00
3:53 PM,54.0,46.0,75,29.84,10.0,WSW,11.5,-,N/A,,Overcast,240,2013-05-11 19:53:00
4:53 PM,55.0,46.0,72,29.82,10.0,WSW,18.4,-,N/A,,Overcast,250,2013-05-11 20:53:00
5:48 PM,53.6,46.4,77,29.82,10.0,WSW,12.7,-,N/A,,Overcast,250,2013-05-11 21:48:00
5:53 PM,54.0,46.0,75,29.83,10.0,WSW,15.0,-,N/A,,Overcast,250,2013-05-11 21:53:00
6:53 PM,55.0,46.9,74,29.81,10.0,SW,10.4,-,0.00,,Overcast,230,2013-05-11 22:53:00
7:45 PM,46.4,42.8,87,29.86,4.0,WNW,23.0,29.9,0.02,Rain,Rain,300,2013-05-11 23:45:00
7:47 PM,46.4,42.8,87,29.86,4.0,WNW,25.3,31.1,0.03,Rain,Rain,300,2013-05-11 23:47:00
7:53 PM,46.9,42.1,83,29.87,5.0,WNW,18.4,32.2,0.03,Rain,Light Rain,300,2013-05-11 23:53:00
8:53 PM,46.0,37.9,73,29.88,10.0,NW,15.0,21.9,0.01,,Overcast,320,2013-05-12 00:53:00
9:53 PM,44.1,37.0,76,29.91,10.0,WNW,9.2,-,N/A,,Partly Cloudy,300,2013-05-12 01:53:00
10:53 PM,43.0,34.0,71,29.94,10.0,NW,6.9,-,N/A,,Clear,310,2013-05-12 02:53:00
11:53 PM,41.0,35.1,79,29.95,10.0,West,3.5,-,N/A,,Clear,260,2013-05-12 03:53:00